Location: *
(24.1434°N, 56.8729°E)
Time: 05:46:21
(UTC+00:00)

SPOT 3 Rocket - Pass Details

Date: 09 April 2020
Orbit: 779 x 794 km, 98.8° (Epoch: 05 June)

Event Time Altitude Azimuth Distance (km) Brightness Sun altitude
Exits shadow 16:01:25 33° 69° (ENE) 1,304 4.3 -20.6°
Drops below altitude 10° 16:05:51 10° 10° (N) 2,356 6.1 -21.6°
Sets 16:08:22 0° 1° (N) 3,285 7.0 -22.1°
